TimeCDT,TemperatureF,Dew PointF,Humidity,Sea Level PressureIn,VisibilityMPH,Wind Direction,Wind SpeedMPH,Gust SpeedMPH,PrecipitationIn,Events,Conditions,WindDirDegrees,DateUTC
12:15 AM,68.7,61.9,79,29.83,10.0,Calm,Calm,-,N/A,,Clear,0,2013-05-17 05:15:00
12:35 AM,70.0,61.7,75,29.82,10.0,SSE,4.6,-,N/A,,Clear,160,2013-05-17 05:35:00
12:55 AM,71.2,61.2,70,29.82,10.0,South,6.9,-,N/A,,Clear,190,2013-05-17 05:55:00
1:15 AM,72.0,61.0,68,29.82,10.0,SSW,8.1,-,N/A,,Clear,200,2013-05-17 06:15:00
1:35 AM,71.8,60.8,68,29.82,10.0,SSW,8.1,-,N/A,,Clear,200,2013-05-17 06:35:00
1:55 AM,71.1,60.8,70,29.82,10.0,South,6.9,-,N/A,,Clear,180,2013-05-17 06:55:00
2:15 AM,70.9,60.8,70,29.82,10.0,SW,8.1,-,N/A,,Clear,220,2013-05-17 07:15:00
2:35 AM,70.7,60.8,71,29.82,10.0,South,5.8,-,N/A,,Clear,170,2013-05-17 07:35:00
2:55 AM,69.6,61.0,74,29.82,10.0,South,3.5,-,N/A,,Clear,190,2013-05-17 07:55:00
3:15 AM,68.9,61.0,76,29.82,10.0,South,3.5,-,N/A,,Clear,170,2013-05-17 08:15:00
3:35 AM,68.9,61.0,76,29.83,10.0,South,3.5,-,N/A,,Clear,170,2013-05-17 08:35:00
3:55 AM,68.0,60.8,78,29.83,10.0,South,3.5,-,N/A,,Clear,190,2013-05-17 08:55:00
4:15 AM,67.3,60.6,79,29.84,10.0,South,4.6,-,N/A,,Clear,180,2013-05-17 09:15:00
4:35 AM,67.3,60.8,80,29.84,10.0,South,5.8,-,N/A,,Clear,190,2013-05-17 09:35:00
4:55 AM,67.1,60.4,79,29.84,10.0,SSW,6.9,-,N/A,,Clear,200,2013-05-17 09:55:00
5:15 AM,67.1,60.4,79,29.84,10.0,South,4.6,-,N/A,,Clear,190,2013-05-17 10:15:00
5:35 AM,66.7,60.4,80,29.85,10.0,South,5.8,-,N/A,,Clear,190,2013-05-17 10:35:00
5:55 AM,66.4,60.3,81,29.85,10.0,South,5.8,-,N/A,,Clear,190,2013-05-17 10:55:00
6:15 AM,66.2,60.4,82,29.86,10.0,SSW,6.9,-,N/A,,Clear,200,2013-05-17 11:15:00
6:35 AM,65.7,60.4,83,29.87,10.0,SSW,5.8,-,N/A,,Clear,200,2013-05-17 11:35:00
7:15 AM,65.7,60.6,84,29.88,10.0,SSW,5.8,-,N/A,,Clear,200,2013-05-17 12:15:00
7:35 AM,65.8,60.8,84,29.89,10.0,South,5.8,-,N/A,,Clear,190,2013-05-17 12:35:00
7:55 AM,66.2,60.8,83,29.89,10.0,SSW,5.8,-,N/A,,Clear,200,2013-05-17 12:55:00
8:15 AM,66.9,61.2,82,29.89,10.0,South,6.9,-,N/A,,Scattered Clouds,190,2013-05-17 13:15:00
8:35 AM,67.6,61.7,81,29.89,10.0,South,4.6,-,N/A,,Clear,190,2013-05-17 13:35:00
8:55 AM,69.3,62.4,79,29.90,10.0,SSW,3.5,-,N/A,,Clear,210,2013-05-17 13:55:00
9:15 AM,72.5,63.3,73,29.90,10.0,SW,9.2,-,N/A,,Clear,220,2013-05-17 14:15:00
9:35 AM,74.1,63.1,68,29.89,10.0,South,6.9,-,N/A,,Clear,190,2013-05-17 14:35:00
9:55 AM,75.9,62.8,64,29.89,10.0,South,9.2,-,N/A,,Clear,190,2013-05-17 14:55:00
10:15 AM,76.6,61.9,60,29.89,10.0,South,9.2,-,N/A,,Clear,190,2013-05-17 15:15:00
10:35 AM,78.3,62.8,59,29.89,10.0,South,10.4,-,N/A,,Clear,190,2013-05-17 15:35:00
10:55 AM,79.0,60.3,53,29.89,10.0,SSE,11.5,16.1,N/A,,Clear,160,2013-05-17 15:55:00
11:15 AM,79.2,60.4,53,29.89,10.0,South,9.2,-,N/A,,Clear,180,2013-05-17 16:15:00
11:35 AM,80.2,60.6,51,29.89,10.0,South,11.5,18.4,N/A,,Clear,180,2013-05-17 16:35:00
11:55 AM,81.0,59.2,47,29.88,10.0,SSE,13.8,19.6,N/A,,Clear,150,2013-05-17 16:55:00
12:15 PM,81.3,59.0,46,29.88,10.0,South,11.5,17.3,N/A,,Clear,180,2013-05-17 17:15:00
12:35 PM,82.2,59.2,45,29.87,10.0,SSE,10.4,18.4,N/A,,Clear,150,2013-05-17 17:35:00
12:55 PM,82.4,59.4,45,29.87,10.0,SSE,8.1,-,N/A,,Clear,150,2013-05-17 17:55:00
1:15 PM,82.6,58.6,44,29.86,10.0,South,13.8,-,N/A,,Scattered Clouds,190,2013-05-17 18:15:00
1:35 PM,83.5,59.4,44,29.86,10.0,South,11.5,-,N/A,,Clear,180,2013-05-17 18:35:00
2:15 PM,84.4,59.2,42,29.85,10.0,South,8.1,17.3,N/A,,Clear,180,2013-05-17 19:15:00
2:35 PM,85.1,59.0,41,29.85,10.0,South,9.2,17.3,N/A,,Clear,190,2013-05-17 19:35:00
2:55 PM,85.8,58.8,40,29.84,10.0,SSE,15.0,18.4,N/A,,Clear,160,2013-05-17 19:55:00
3:15 PM,85.3,59.4,41,29.84,10.0,SSE,8.1,-,N/A,,Clear,160,2013-05-17 20:15:00
3:35 PM,86.0,59.2,40,29.84,10.0,South,15.0,18.4,N/A,,Clear,170,2013-05-17 20:35:00
3:55 PM,86.7,59.0,39,29.84,10.0,SE,11.5,21.9,N/A,,Clear,140,2013-05-17 20:55:00
4:15 PM,86.7,59.0,39,29.83,10.0,SSE,10.4,-,N/A,,Clear,160,2013-05-17 21:15:00
4:35 PM,86.7,59.0,39,29.82,10.0,SSE,10.4,19.6,N/A,,Scattered Clouds,150,2013-05-17 21:35:00
4:55 PM,86.5,59.0,39,29.82,10.0,SSE,9.2,16.1,N/A,,Clear,160,2013-05-17 21:55:00
5:15 PM,86.7,59.0,39,29.82,10.0,SSE,13.8,-,N/A,,Clear,160,2013-05-17 22:15:00
5:35 PM,86.5,59.0,39,29.82,10.0,SE,10.4,-,N/A,,Clear,130,2013-05-17 22:35:00
5:55 PM,86.2,58.6,39,29.82,10.0,SSE,15.0,-,N/A,,Clear,160,2013-05-17 22:55:00
6:15 PM,86.0,58.6,39,29.82,10.0,SSE,11.5,-,N/A,,Clear,150,2013-05-17 23:15:00
6:35 PM,85.1,58.6,41,29.81,10.0,SSE,11.5,18.4,N/A,,Clear,150,2013-05-17 23:35:00
6:55 PM,84.7,58.6,41,29.81,10.0,SSE,11.5,18.4,N/A,,Clear,150,2013-05-17 23:55:00
7:15 PM,84.2,59.5,43,29.81,10.0,SSE,10.4,-,N/A,,Clear,150,2013-05-18 00:15:00
7:35 PM,83.3,59.0,44,29.81,10.0,SSE,9.2,-,N/A,,Clear,160,2013-05-18 00:35:00
7:55 PM,82.4,58.8,45,29.81,10.0,SSE,11.5,-,N/A,,Clear,150,2013-05-18 00:55:00
8:15 PM,81.3,59.4,47,29.82,10.0,SSE,9.2,-,N/A,,Clear,150,2013-05-18 01:15:00
8:35 PM,80.1,59.5,49,29.83,10.0,SSE,8.1,-,N/A,,Clear,150,2013-05-18 01:35:00
8:55 PM,79.0,59.9,52,29.84,10.0,SSE,9.2,-,N/A,,Clear,150,2013-05-18 01:55:00
9:15 PM,78.1,60.1,54,29.86,10.0,SSE,8.1,-,N/A,,Clear,150,2013-05-18 02:15:00
9:35 PM,77.7,60.3,55,29.87,10.0,SE,9.2,-,N/A,,Clear,140,2013-05-18 02:35:00
9:55 PM,76.6,60.4,57,29.87,10.0,SSE,10.4,-,N/A,,Clear,150,2013-05-18 02:55:00
10:15 PM,76.3,60.8,59,29.87,10.0,SE,9.2,-,N/A,,Clear,140,2013-05-18 03:15:00
10:35 PM,75.4,60.8,60,29.88,10.0,SSE,8.1,-,N/A,,Clear,150,2013-05-18 03:35:00
10:55 PM,74.1,60.8,63,29.88,10.0,SSE,9.2,-,N/A,,Clear,150,2013-05-18 03:55:00
11:35 PM,72.9,60.8,66,29.88,10.0,SSE,10.4,-,N/A,,Clear,150,2013-05-18 04:35:00
11:55 PM,72.1,60.8,67,29.88,10.0,SSE,10.4,-,N/A,,Clear,150,2013-05-18 04:55:00